SKYSAT-A

Last updated on Mon Sep 21 2026 00:02:45 GMT+0000 (Coordinated Universal Time)

1 39418U 13066C 26263.61221404 .00001756 00000+0 10143-3 0 9990 2 39418 97.3721 309.9469 0020750 348.5402 11.5355 15.13421373702915
UTC large
Height (km)
Speed (km/s)
/
Latitude / Longitude
Inclination (degrees)
Orbital Period (minutes)
Azimuth
Elevation
Range (km)
Doppler Factor

Next 0 passes for location: London (51.5072 / 0.1276)

No passes found over London.
SKYSAT-A